Montrose, CO

5:21 AM MDT on June 26, 2017 (GMT -0600)
Montrose Regional

Weather History for KMTJ - December, 2014

Change the Weather History Date:

Wednesday, December 31, 2014

  Actual Average Record
Temperature  
Mean Temperature 7 °F 25 °F  
Max Temperature 16 °F 37 °F 52 °F (2005)
Min Temperature -2 °F 13 °F -2 °F (2014)
Degree Days  
Heating Degree Days 58 40  
Month to date heating degree days 1010 1187  
Since 1 July heating degree days 2257 2608  
Cooling Degree Days 0 0  
Month to date cooling degree days 0 0  
Year to date cooling degree days 782 643  
Moisture  
Dew Point 4 °F    
Average Humidity 84    
Maximum Humidity 95    
Minimum Humidity 73    
Precipitation  
Precipitation T in 0.02 in 0.18 in (2012)
Month to date precipitation 0.46 0.67  
Year to date precipitation 9.11 11.32  
Sea Level Pressure  
Sea Level Pressure 30.27 in    
Wind  
Wind Speed 3 mph (SE)    
Max Wind Speed 8 mph    
Max Gust Speed 9 mph    
Visibility 6 miles    
Events Snow    
T = Trace of Precipitation, MM = Missing Value Source: NWS Daily Summary

Daily Weather History Graph

Daily Weather History Graph

Search for Another Location

Airport or City:

Trip Planner

Search our weather history database for the weather conditions in past years. The results will help you decide how hot, cold, wet, or windy it might be!

Date:

Astronomy

Dec. 31, 2014 Rise Set
Actual Time 7:28 AM MST 5:00 PM MST
Civil Twilight 6:59 AM MST 5:30 PM MST
Nautical Twilight 6:26 AM MST 6:03 PM MST
Astronomical Twilight 5:53 AM MST 6:35 PM MST
Moon 1:52 PM MST (12/31) 3:00 AM MST (12/31)
Length of Visible Light 10h 30m
Length of Day
9h 31m
Waxing Gibbous, 81% of the Moon is Illuminated
Dec 31
Waxing Gibbous
Jan 4
Full
Jan 13
Last Quarter
Jan 20
New
Jan 26
First Quarter

Hourly Weather History & Observations

Time (MST) Temp. Windchill Dew Point Humidity Pressure Visibility Wind Dir Wind Speed Gust Speed Precip Events Conditions
12:08 AM 10.0 °F - 6.1 °F 84% 30.22 in 4.0 mi Calm Calm - 0.00 in Snow Light Snow
12:27 AM 7.0 °F - 6.1 °F 96% 30.22 in 7.0 mi Calm Calm - 0.00 in   Scattered Clouds
12:53 AM 1.9 °F -9.2 °F -0.0 °F 91% 30.40 in 8.0 mi East 5.8 mph - 0.00 in   Clear
1:31 AM 1.9 °F -7.6 °F -0.9 °F 88% 30.21 in 3.0 mi SSE 4.6 mph - N/A   Partly Cloudy
1:53 AM 1.0 °F -10.3 °F -2.0 °F 87% 30.41 in 8.0 mi SSE 5.8 mph - N/A   Scattered Clouds
2:53 AM 5.0 °F - 1.0 °F 84% 30.38 in 10.0 mi Calm Calm - N/A   Overcast
3:53 AM 3.9 °F - 1.0 °F 88% 30.39 in 9.0 mi Calm Calm - N/A   Scattered Clouds
4:53 AM 1.0 °F -6.7 °F -2.0 °F 87% 30.40 in 9.0 mi South 3.5 mph - N/A   Clear
5:53 AM -2.0 °F -12.2 °F -6.0 °F 83% 30.41 in 7.0 mi SE 4.6 mph - N/A   Scattered Clouds
6:20 AM -0.0 °F -13.0 °F -4.0 °F 83% 30.20 in 7.0 mi South 6.9 mph - N/A   Mostly Cloudy
6:53 AM 3.0 °F -6.4 °F -0.0 °F 87% 30.40 in 10.0 mi SSE 4.6 mph - N/A   Overcast
7:15 AM 3.9 °F -5.3 °F 1.0 °F 88% 30.20 in 10.0 mi SE 4.6 mph - N/A   Overcast
7:36 AM 5.0 °F -4.1 °F 1.9 °F 87% 30.20 in 9.0 mi East 4.6 mph - N/A   Overcast
7:53 AM 6.1 °F -2.8 °F 3.0 °F 87% 30.38 in 6.0 mi SSE 4.6 mph - N/A   Overcast
8:39 AM 8.1 °F 1.4 °F 5.0 °F 87% 30.20 in 2.0 mi ESE 3.5 mph - 0.00 in Snow Light Snow
8:53 AM 9.0 °F - 6.1 °F 88% 30.38 in 3.0 mi Calm Calm - 0.00 in   Overcast
9:06 AM 8.1 °F - 7.0 °F 95% 30.20 in 2.5 mi Calm Calm - 0.00 in Snow Light Snow
9:28 AM 9.0 °F 2.4 °F 7.0 °F 92% 30.20 in 1.5 mi SW 3.5 mph - 0.00 in Snow Light Snow
9:39 AM 10.0 °F 1.8 °F 8.1 °F 92% 30.21 in 1.2 mi WNW 4.6 mph - 0.00 in Snow Light Snow
9:46 AM 9.0 °F 0.6 °F 7.0 °F 92% 30.21 in 1.0 mi West 4.6 mph - 0.00 in Snow Light Snow
9:53 AM 9.0 °F 0.6 °F 7.0 °F 92% 30.39 in 1.5 mi NW 4.6 mph - 0.00 in Snow Light Snow
9:57 AM 9.0 °F 2.4 °F 6.1 °F 88% 30.20 in 2.0 mi North 3.5 mph - 0.00 in Snow Light Snow
10:07 AM 10.0 °F 3.6 °F 7.0 °F 87% 30.20 in 4.0 mi Variable 3.5 mph - 0.00 in   Overcast
10:46 AM 10.9 °F 4.7 °F 7.0 °F 84% 30.19 in 2.0 mi WNW 3.5 mph - 0.00 in Snow Light Snow
10:53 AM 10.9 °F 1.4 °F 6.1 °F 81% 30.37 in 2.5 mi North 5.8 mph - 0.00 in Snow Light Snow
11:05 AM 12.0 °F 5.9 °F 7.0 °F 80% 30.19 in 5.0 mi NNW 3.5 mph - 0.00 in Snow Light Snow
11:14 AM 12.9 °F - 7.0 °F 77% 30.18 in 4.0 mi Calm Calm - 0.00 in Snow Light Snow
11:24 AM 12.0 °F 5.9 °F 7.0 °F 80% 30.18 in 2.0 mi NW 3.5 mph - 0.00 in Snow Light Snow
11:35 AM 12.0 °F 5.9 °F 7.0 °F 80% 30.16 in 5.0 mi North 3.5 mph - 0.00 in   Haze
11:53 AM 10.9 °F - 7.0 °F 84% 30.33 in 9.0 mi Calm Calm - 0.00 in   Mostly Cloudy
12:12 PM 12.9 °F - 7.0 °F 77% 30.14 in 8.0 mi Calm Calm - N/A   Scattered Clouds
12:53 PM 12.9 °F - 8.1 °F 81% 30.32 in 9.0 mi Calm Calm - N/A   Mostly Cloudy
1:53 PM 12.9 °F 5.2 °F 8.1 °F 81% 30.31 in 10.0 mi SE 4.6 mph - N/A   Overcast
2:53 PM 16.0 °F - 8.1 °F 71% 30.26 in 10.0 mi Calm Calm - N/A   Mostly Cloudy
3:53 PM 15.1 °F - 8.1 °F 74% 30.27 in 10.0 mi Calm Calm - N/A   Scattered Clouds
4:53 PM 12.9 °F 6.9 °F 8.1 °F 81% 30.28 in 10.0 mi North 3.5 mph - N/A   Overcast
5:53 PM 12.9 °F - 8.1 °F 81% 30.29 in 10.0 mi Calm Calm - N/A   Clear
6:53 PM 12.9 °F - 7.0 °F 77% 30.27 in 9.0 mi Calm Calm - N/A   Clear
7:53 PM 10.0 °F - 6.1 °F 84% 30.26 in 7.0 mi Calm Calm - N/A   Partly Cloudy
8:53 PM 3.0 °F -4.4 °F -0.9 °F 84% 30.27 in 7.0 mi SE 3.5 mph - N/A   Clear
9:53 PM 3.9 °F -9.4 °F 1.0 °F 88% 30.25 in 9.0 mi SSE 8.1 mph - N/A   Clear
10:53 PM 1.9 °F -9.2 °F -0.9 °F 88% 30.24 in 8.0 mi SSE 5.8 mph - N/A   Clear
11:53 PM 1.0 °F -11.7 °F -2.9 °F 83% 30.23 in 8.0 mi SSE 6.9 mph - N/A   Clear